Location: ??
(35.5052°N, 139.7262°E)
Time: 18:51:31
(UTC+00:00)

OAO 1 - Pass Details

Date: 01 November 2021
Orbit: 773 x 784 km, 35.0° (Epoch: 28 November)

Event Time Altitude Azimuth Distance (km) Brightness Sun altitude
Rises 08:32:52 0° 278° (W) 3,243 9.3 -10.0°
Reaches altitude 10° 08:35:21 10° 276° (W) 2,317 8.4 -10.5°
Maximum altitude 08:40:47 66° 195° (SSW) 845 4.8 -11.6°
Enters shadow 08:45:52 12° 114° (ESE) 2,195 6.4 -12.6°
